Location: Napier
(39.4830°S, 176.9170°E)
Time: 19:47:40
(UTC+13:00)

BREEZE-M DEB (TANK) - Pass Details

Date: 24 January 2019
Orbit: 278 x 14014 km, 46.1° (Epoch: 19 February)

Event Time Altitude Azimuth Distance (km) Brightness Sun altitude
Rises 22:19:31 0° 283° (WNW) 4,162 7.2 -17.2°
Reaches altitude 10° 22:23:37 10° 276° (W) 2,169 5.9 -17.7°
Maximum altitude 22:27:25 39° 204° (SSW) 600 3.0 -18.2°
Enters shadow 22:28:54 17° 139° (SE) 918 3.5 -18.4°
